Location: Unspecified
(0.0000°N, 0.0000°E)
Time: 15:04:50
(UTC+00:00)

CUTE-I - Pass Details

Date: 10 December 2019
Orbit: 811 x 824 km, 98.7° (Epoch: 14 August)

Event Time Altitude Azimuth Distance (km) Brightness Sun altitude
Rises 18:10:57 0° 174° (S) 3,345 ? -4.2°
Reaches altitude 10° 18:13:19 10° 177° (S) 2,412 ? -4.7°
Maximum altitude 18:18:35 63° 257° (WSW) 914 ? -5.9°
Drops below altitude 10° 18:23:51 10° 338° (NNW) 2,410 ? -7.1°
Sets 18:26:13 0° 341° (NNW) 3,341 ? -7.7°
